Previsão horária em Braga

Hoje, 17 Janeiro, Domingo

Tempo Temperatura Precipitação Vento Pressão Humidade
00:00 +6°C° 0 mm 1 m/s 761 mmHg 67%
01:00 +6°C° 0 mm 1 m/s 761 mmHg 67%
02:00 +6°C° 0 mm 1 m/s 761 mmHg 67%
03:00 +6°C° 0 mm 1 m/s 761 mmHg 68%
04:00 +6°C° 0 mm 1 m/s 761 mmHg 68%
05:00 +6°C° 0 mm 1 m/s 761 mmHg 71%
06:00 +7°C° 0 mm 1 m/s 761 mmHg 71%
07:00 +7°C° 0 mm 1 m/s 761 mmHg 71%
08:00 +8°C° 0 mm 1 m/s 761 mmHg 70%
09:00 +10°C° 0 mm 1 m/s 761 mmHg 65%
10:00 +13°C° 0 mm 1 m/s 761 mmHg 59%
11:00 +14°C° 0 mm 0 m/s 762 mmHg 56%
12:00 +15°C° 0 mm 1 m/s 761 mmHg 57%
13:00 +16°C° 0 mm 1 m/s 760 mmHg 58%
14:00 +16°C° 0 mm 1 m/s 760 mmHg 60%
15:00 +14°C° 0 mm 1 m/s 760 mmHg 68%
16:00 +12°C° 0 mm 1 m/s 760 mmHg 76%
17:00 +11°C° 0 mm 1 m/s 760 mmHg 85%
18:00 +10°C° 0 mm 1 m/s 760 mmHg 85%
19:00 +10°C° 0 mm 1 m/s 760 mmHg 85%
20:00 +10°C° 0 mm 1 m/s 760 mmHg 85%
21:00 +9°C° 0 mm 1 m/s 760 mmHg 86%
22:00 +9°C° 0 mm 1 m/s 760 mmHg 86%
23:00 +9°C° 0 mm 1 m/s 760 mmHg 86%

Amanhã, 18 Janeiro, Segunda-feira

Tempo Temperatura Precipitação Vento Pressão Humidade
00:00 +9°C° 0 mm 1 m/s 760 mmHg 86%
01:00 +8°C° 0 mm 1 m/s 759 mmHg 86%
02:00 +8°C° 0 mm 1 m/s 759 mmHg 87%
03:00 +8°C° 0 mm 1 m/s 759 mmHg 87%
04:00 +8°C° 0 mm 1 m/s 759 mmHg 87%
05:00 +8°C° 0 mm 1 m/s 759 mmHg 88%
06:00 +8°C° 0 mm 1 m/s 759 mmHg 86%
07:00 +8°C° 0 mm 1 m/s 759 mmHg 85%
08:00 +9°C° 0 mm 1 m/s 759 mmHg 83%
09:00 +11°C° 0 mm 1 m/s 759 mmHg 76%
10:00 +13°C° 0 mm 1 m/s 759 mmHg 68%
11:00 +15°C° 0 mm 1 m/s 759 mmHg 60%
12:00 +16°C° 0 mm 1 m/s 758 mmHg 60%
13:00 +16°C° 0 mm 1 m/s 757 mmHg 59%
14:00 +16°C° 0 mm 1 m/s 756 mmHg 59%
15:00 +14°C° 0 mm 1 m/s 757 mmHg 67%
16:00 +12°C° 0 mm 1 m/s 757 mmHg 75%
17:00 +9°C° 0 mm 0 m/s 757 mmHg 83%
18:00 +9°C° 0 mm 1 m/s 757 mmHg 84%
19:00 +9°C° 0 mm 1 m/s 757 mmHg 84%
20:00 +9°C° 0 mm 1 m/s 757 mmHg 85%
21:00 +8°C° 0 mm 1 m/s 757 mmHg 85%
22:00 +8°C° 0 mm 1 m/s 757 mmHg 85%
23:00 +8°C° 0 mm 1 m/s 757 mmHg 86%

Depois de amanhã, 19 Janeiro, Terça-feira

Tempo Temperatura Precipitação Vento Pressão Humidade
00:00 +7°C° 0 mm 1 m/s 757 mmHg 86%
01:00 +7°C° 0 mm 1 m/s 756 mmHg 85%
02:00 +7°C° 0 mm 1 m/s 756 mmHg 85%
03:00 +6°C° 0 mm 2 m/s 755 mmHg 85%
04:00 +5°C° 0 mm 2 m/s 755 mmHg 84%
05:00 +5°C° 0 mm 2 m/s 755 mmHg 84%
06:00 +6°C° 0 mm 2 m/s 755 mmHg 82%
07:00 +6°C° 0 mm 2 m/s 755 mmHg 80%
08:00 +6°C° 0 mm 2 m/s 755 mmHg 78%
09:00 +8°C° 0 mm 3 m/s 754 mmHg 74%
10:00 +9°C° 0 mm 3 m/s 754 mmHg 70%
11:00 +11°C° 0 mm 4 m/s 754 mmHg 65%
12:00 +11°C° 0 mm 4 m/s 753 mmHg 66%
13:00 +12°C° 0 mm 4 m/s 752 mmHg 66%
14:00 +12°C° 0 mm 5 m/s 751 mmHg 67%
15:00 +10°C° 0 mm 5 m/s 750 mmHg 71%
16:00 +10°C° 0 mm 4 m/s 750 mmHg 75%
17:00 +8°C° 0 mm 4 m/s 749 mmHg 79%
18:00 +8°C° 0 mm 5 m/s 749 mmHg 78%
19:00 +8°C° 0 mm 5 m/s 748 mmHg 77%
20:00 +8°C° 0 mm 5 m/s 747 mmHg 76%
21:00 +8°C° 0.5 mm 5 m/s 747 mmHg 80%
22:00 +8°C° 0.5 mm 6 m/s 746 mmHg 84%
23:00 +8°C° 0.5 mm 6 m/s 745 mmHg 88%

20 Janeiro, Quarta-feira

Tempo Temperatura Precipitação Vento Pressão Humidade
00:00 +8°C° 2.2 mm 6 m/s 744 mmHg 90%
01:00 +8°C° 2.2 mm 6 m/s 743 mmHg 92%
02:00 +8°C° 2.2 mm 5 m/s 742 mmHg 93%
03:00 +9°C° 3 mm 5 m/s 741 mmHg 94%
04:00 +10°C° 3 mm 4 m/s 741 mmHg 95%
05:00 +10°C° 3 mm 3 m/s 740 mmHg 96%
06:00 +10°C° 1.1 mm 4 m/s 740 mmHg 96%
07:00 +10°C° 1.1 mm 4 m/s 740 mmHg 95%
08:00 +11°C° 1.1 mm 4 m/s 739 mmHg 95%
09:00 +11°C° 1.1 mm 4 m/s 739 mmHg 95%
10:00 +10°C° 1.1 mm 5 m/s 739 mmHg 94%
11:00 +11°C° 1.1 mm 6 m/s 739 mmHg 94%
12:00 +11°C° 1.5 mm 6 m/s 739 mmHg 94%
13:00 +11°C° 1.5 mm 6 m/s 739 mmHg 93%
14:00 +11°C° 1.5 mm 7 m/s 739 mmHg 93%
15:00 +11°C° 1 mm 6 m/s 739 mmHg 93%
16:00 +11°C° 1 mm 6 m/s 739 mmHg 93%
17:00 +10°C° 1 mm 6 m/s 740 mmHg 93%
18:00 +11°C° 0.9 mm 6 m/s 740 mmHg 93%
19:00 +12°C° 0.9 mm 5 m/s 741 mmHg 94%
20:00 +12°C° 0.9 mm 5 m/s 742 mmHg 94%
21:00 +10°C° 0.6 mm 5 m/s 743 mmHg 95%
22:00 +10°C° 0.6 mm 5 m/s 743 mmHg 95%
23:00 +11°C° 0.6 mm 4 m/s 744 mmHg 96%

21 Janeiro, Quinta-feira

Tempo Temperatura Precipitação Vento Pressão Humidade
00:00 +11°C° 0.4 mm 4 m/s 744 mmHg 96%
01:00 +11°C° 0.4 mm 4 m/s 744 mmHg 95%
02:00 +10°C° 0.4 mm 3 m/s 745 mmHg 95%
03:00 +11°C° 0.2 mm 4 m/s 745 mmHg 95%
04:00 +11°C° 0.2 mm 4 m/s 745 mmHg 96%
05:00 +11°C° 0.2 mm 4 m/s 745 mmHg 96%
06:00 +10°C° 0.7 mm 5 m/s 744 mmHg 95%
07:00 +10°C° 0.7 mm 6 m/s 744 mmHg 95%
08:00 +11°C° 0.7 mm 7 m/s 744 mmHg 94%
09:00 +11°C° 2.1 mm 7 m/s 744 mmHg 95%
10:00 +11°C° 2.1 mm 8 m/s 744 mmHg 95%
11:00 +11°C° 2.1 mm 8 m/s 743 mmHg 95%
12:00 +11°C° 2.2 mm 8 m/s 743 mmHg 94%
13:00 +11°C° 2.2 mm 8 m/s 743 mmHg 92%
14:00 +12°C° 2.2 mm 7 m/s 743 mmHg 91%
15:00 +11°C° 0.5 mm 7 m/s 743 mmHg 91%
16:00 +11°C° 0.5 mm 6 m/s 743 mmHg 91%
17:00 +10°C° 0.5 mm 5 m/s 744 mmHg 91%
18:00 +10°C° 0.5 mm 5 m/s 744 mmHg 90%
19:00 +10°C° 0.5 mm 5 m/s 745 mmHg 90%
20:00 +10°C° 0.5 mm 5 m/s 745 mmHg 89%
21:00 +10°C° 0.5 mm 4 m/s 745 mmHg 90%
22:00 +10°C° 0.5 mm 4 m/s 746 mmHg 90%
23:00 +9°C° 0.5 mm 3 m/s 746 mmHg 91%

22 Janeiro, Sexta-feira

Tempo Temperatura Precipitação Vento Pressão Humidade
00:00 +9°C° 0.7 mm 3 m/s 746 mmHg 92%
01:00 +9°C° 0.7 mm 3 m/s 746 mmHg 93%
02:00 +9°C° 0.7 mm 3 m/s 746 mmHg 94%
03:00 +8°C° 1.2 mm 4 m/s 746 mmHg 92%
04:00 +8°C° 1.2 mm 5 m/s 745 mmHg 90%
05:00 +9°C° 1.2 mm 6 m/s 745 mmHg 89%
06:00 +8°C° 0.7 mm 6 m/s 746 mmHg 88%
07:00 +8°C° 0.7 mm 6 m/s 747 mmHg 87%
08:00 +8°C° 0.7 mm 6 m/s 748 mmHg 86%
09:00 +9°C° 0.3 mm 6 m/s 749 mmHg 82%
10:00 +9°C° 0.3 mm 5 m/s 750 mmHg 78%
11:00 +9°C° 0.3 mm 5 m/s 751 mmHg 74%
12:00 +10°C° 0.1 mm 5 m/s 751 mmHg 74%
13:00 +11°C° 0.1 mm 4 m/s 751 mmHg 74%
14:00 +11°C° 0.1 mm 4 m/s 751 mmHg 74%
15:00 +10°C° 0.1 mm 3 m/s 752 mmHg 79%
16:00 +9°C° 0.1 mm 2 m/s 752 mmHg 84%
17:00 +8°C° 0.1 mm 2 m/s 753 mmHg 89%
18:00 +8°C° 0.1 mm 2 m/s 754 mmHg 90%
19:00 +7°C° 0.1 mm 2 m/s 754 mmHg 90%
20:00 +8°C° 0.1 mm 1 m/s 755 mmHg 91%
21:00 +7°C° 0.1 mm 2 m/s 755 mmHg 91%
22:00 +8°C° 0.1 mm 2 m/s 755 mmHg 91%
23:00 +8°C° 0.1 mm 2 m/s 755 mmHg 91%
Mostrar mais

Necessitamos do seu Consentimento

A Meteoprog e os seus Fornecedores de Serviços podem armazenar e aceder a dados pessoais como cookies, identificadores do dispositivo ou outras tecnologias semelhantes existentes no seu dispositivo e processar estes dados para personalizar conteúdos e anúncios, assim como funcionalidades nas redes sociais e análise de tráfego.

  • Armazenar e/ou aceder a informações no seu dispositivo

    Os cookies, identificadores do dispositivo ou outras informações podem ser armazenados ou acedidos no seu dispositivo, para os fins acima indicados.

  • Anúncios e conteúdos personalizados, medição de anúncios e conteúdos, dados sobre o público-alvo e desenvolvimento de produtos

    Os anúncios e os conteúdos podem ser personalizados com base num perfil. Podem ser adicionados dados adicionais para uma maior personalização dos anúncios e dos conteúdos. A eficácia dos anúncios e dos conteúdos pode ser medida. Podem ser obtidas informações sobre o público que visualizou os anúncios e os conteúdos. Estes dados podem ser usados para desenvolver ou melhorar sistemas, softwares ou a experiência do utilizador.

Ao clicar em "Eu concordo”, permitirá o uso de cookies, identificadores do dispositivo e web beacons mencionados ou outras tecnologias semelhantes. As configurações do navegador do seu dispositivo podem ser alteradas.

Para certos fins, podem ser invocados interesses legítimos ao invés de consentimento. Pode ler mais informação sobre este assunto na nossa Política de Privacidade e Cookies.